TimeEST,TemperatureF,Dew PointF,Humidity,Sea Level PressureIn,VisibilityMPH,Wind Direction,Wind SpeedMPH,Gust SpeedMPH,PrecipitationIn,Events,Conditions,WindDirDegrees,DateUTC
12:53 AM,42.1,34.0,73,30.33,10.0,Calm,Calm,-,N/A,,Clear,0,2013-11-06 05:53:00
1:53 AM,39.9,34.0,79,30.31,10.0,SW,3.5,-,N/A,,Clear,220,2013-11-06 06:53:00
2:53 AM,39.0,34.0,82,30.29,10.0,Calm,Calm,-,N/A,,Clear,0,2013-11-06 07:53:00
3:53 AM,41.0,35.1,79,30.28,10.0,Calm,Calm,-,N/A,,Clear,0,2013-11-06 08:53:00
4:53 AM,41.0,36.0,82,30.27,10.0,Calm,Calm,-,N/A,,Clear,0,2013-11-06 09:53:00
5:53 AM,45.0,42.1,90,30.27,10.0,Calm,Calm,-,N/A,,Clear,0,2013-11-06 10:53:00
6:53 AM,48.0,42.1,80,30.25,10.0,Calm,Calm,-,N/A,,Clear,0,2013-11-06 11:53:00
7:53 AM,54.0,45.0,72,30.24,10.0,Calm,Calm,-,N/A,,Clear,0,2013-11-06 12:53:00
8:53 AM,57.9,46.0,65,30.23,10.0,South,5.8,-,N/A,,Clear,190,2013-11-06 13:53:00
9:53 AM,62.1,45.0,53,30.21,10.0,South,11.5,-,N/A,,Partly Cloudy,190,2013-11-06 14:53:00
10:53 AM,66.9,46.9,49,30.19,10.0,SSW,8.1,-,N/A,,Partly Cloudy,200,2013-11-06 15:53:00
11:53 AM,68.0,46.9,47,30.17,10.0,SSW,12.7,19.6,N/A,,Scattered Clouds,200,2013-11-06 16:53:00
12:53 PM,73.0,48.0,41,30.12,10.0,SSW,15.0,18.4,N/A,,Clear,210,2013-11-06 17:53:00
1:53 PM,73.0,46.9,39,30.09,10.0,SSW,13.8,24.2,N/A,,Partly Cloudy,200,2013-11-06 18:53:00
2:53 PM,71.1,46.9,42,30.06,10.0,SSW,12.7,-,N/A,,Mostly Cloudy,210,2013-11-06 19:53:00
3:53 PM,71.1,46.9,42,30.04,10.0,South,8.1,-,N/A,,Mostly Cloudy,180,2013-11-06 20:53:00
4:53 PM,69.1,46.9,45,30.03,10.0,South,9.2,-,N/A,,Scattered Clouds,190,2013-11-06 21:53:00
5:53 PM,68.0,48.0,49,30.02,10.0,SSW,8.1,-,N/A,,Overcast,200,2013-11-06 22:53:00
6:53 PM,68.0,46.0,45,30.01,10.0,South,10.4,-,N/A,,Overcast,190,2013-11-06 23:53:00
7:53 PM,66.0,46.0,48,29.99,10.0,South,9.2,-,N/A,,Overcast,190,2013-11-07 00:53:00
8:53 PM,64.9,46.0,50,29.97,10.0,South,9.2,-,N/A,,Mostly Cloudy,190,2013-11-07 01:53:00
9:53 PM,64.9,46.0,50,29.96,10.0,South,10.4,-,N/A,,Overcast,190,2013-11-07 02:53:00
10:53 PM,64.9,46.0,50,29.94,10.0,SSW,9.2,-,N/A,,Overcast,200,2013-11-07 03:53:00
11:53 PM,64.9,46.0,50,29.93,10.0,SW,10.4,-,N/A,,Overcast,220,2013-11-07 04:53:00